Location: Caltech
(34.1382°N, 118.1253°W)
Time: 00:13:47
(UTC-08:00)

Uosat F - Visible Passes

Search period start: 18 January 2018 00:00
Search period end: 28 January 2018 00:00
Orbit: 750 x 761 km, 98.7° (Epoch: 17 January)

Date Brightness Start Highest point End Pass type
(mag) Time Alt. Az. Time Alt. Az. Time Alt. Az.
18 Jan 14.0 06:16:22 10° NE 06:19:56 19° E 06:23:29 10° SE visible
18 Jan 12.3 19:03:28 10° S 19:08:09 42° W 19:12:54 10° NNW visible
19 Jan 10.9 18:23:41 10° SSE 18:28:39 74° ENE 18:33:38 10° N visible
20 Jan 11.9 17:45:05 10° SE 17:49:20 29° ENE 17:53:36 10° N visible
20 Jan 13.1 19:23:51 10° SSW 19:28:00 26° W 19:32:11 10° NW visible
21 Jan 14.5 05:58:25 10° ENE 06:00:00 11° E 06:01:36 10° ESE visible
21 Jan 11.3 18:43:24 10° S 18:48:22 70° WSW 18:53:22 10° NNW visible
22 Jan 11.3 18:04:14 10° SE 18:08:57 45° ENE 18:13:43 10° N visible
22 Jan 13.8 19:44:47 10° SW 19:47:53 16° W 19:51:00 10° NW visible
23 Jan 14.0 06:16:24 10° NE 06:19:55 19° E 06:23:26 10° SE visible
23 Jan 12.2 19:03:26 10° S 19:08:08 43° W 19:12:54 10° NNW visible
24 Jan 10.9 18:23:40 10° SSE 18:28:38 73° ENE 18:33:38 10° N visible
25 Jan 11.9 17:45:06 10° SE 17:49:20 28° ENE 17:53:34 10° NNE visible
25 Jan 13.1 19:23:47 10° SSW 19:27:59 27° W 19:32:12 10° NW visible
26 Jan 14.6 05:58:31 10° ENE 05:59:59 11° E 06:01:27 10° ESE visible
26 Jan 11.3 18:43:23 10° S 18:48:21 71° WSW 18:53:22 10° NNW visible
27 Jan 11.3 18:04:14 10° SE 18:08:56 44° ENE 18:13:41 10° N visible
27 Jan 13.8 19:44:42 10° SW 19:47:51 17° W 19:51:02 10° NW visible
